Погода в Косино

Россия / Кировская область     58°24′24″N   51°16′51″E
темп.,
°C
ветер,
м/с
пор.,
м/с
влажн.,
%
обл.,
%
осадки,
мм/ч
давл.,
гПа
погр.,
м
26 февраля, пт
пт2600:00−23юв389697 0.1 1022272
03:00−24юв379799 0.1 1022237
06:00−24юв4996100 0.0 1021268
09:00−22юв4794100 0.0 1020320
12:00−18юв5890100 0.0 1019512
15:00−16юв51090100 0.0 1017627
18:00−18юв61392100 0.0 1014580
21:00−19юв61492100 0.1 1011528
27 февраля, сб
сб2700:00−19юв61491100 0.0 1008562
03:00−18вюв51390100 0.0 1007595
06:00−17вюв51291100 0.1 1006666
09:00−15вюв51092100 0.5 1006701
12:00−13в5884100 0.1 1006822
15:00−12всв4786100 0.2 1007796
18:00−15всв279496 0.0 1008203
21:00−17св379568 0.1 1009160
28 февраля, вс
вс2800:00−20св35960 0.0 1009115
03:00−22св35960 0.0 1011118
06:00−24св37960 0.0 1012141
09:00−21св36920 0.0 1013270
12:00−16ссв35889 0.0 1013414
15:00−14ссв378953 0.0 1014455
18:00−18ссв239667 0.0 101558
21:00−20св229834 0.0 101820
1 марта, пн
пн100:00−21ссв22970 0.0 101920
03:00−22с12970 0.0 102120
06:00−23ссв11980 0.0 102120
09:00−17зюз00905 0.0 1021150
12:00−13ююз22832 0.0 1020348
15:00−12юз248818 0.0 1019410
18:00−17ююз369641 0.0 1017114
21:00−18ююз399723 0.0 1015210
2 марта, вт
вт200:00−18ю4109785 0.0 1012298
03:00−16ю5119592 0.1 1009358
06:00−15ю41195100 0.9 1005445
09:00−13ю51094100 2.2 1003483
12:00−11ю4893100 0.9 1002496
15:00−10ю3794100 1.8 1001471
18:00−11ююв2497100 0.4 1001103
21:00−12ююв229794 0.6 100240